Location: Finkenbach
(49.5340°N, 8.9188°E)
Time: 04:36:06
(UTC+00:00)

Okean-O - Pass Details

Date: 17 June 2025
Orbit: 628 x 631 km, 98.0° (Epoch: 12 July)

Event Time Altitude Azimuth Distance (km) Brightness Sun altitude
Exits shadow 20:14:28 - 173° (S) 2,809 5.4 -5.6°
Reaches altitude 10° 20:16:26 10° 176° (S) 2,007 4.7 -5.9°
Maximum altitude 20:20:46 64° 258° (WSW) 705 3.0 -6.3°
Drops below altitude 10° 20:25:08 10° 340° (NNW) 2,022 6.5 -6.8°
Sets 20:27:22 0° 344° (NNW) 2,934 7.4 -7.0°
